Monticello, NY

9:42 PM EST on December 15, 2019 (GMT -0500)
Sullivan County International

Weather History for KMSV - November, 2019

Change the Weather History Date:

Tuesday, November 12, 2019

  Actual Average Record
Temperature  
Mean Temperature 26 °F -  
Max Temperature 37 °F 43 °F 60 °F (2010)
Min Temperature 15 °F 28 °F 15 °F (2019)
Degree Days  
Heating Degree Days 39    
Moisture  
Dew Point 22 °F    
Average Humidity 82    
Maximum Humidity 97    
Minimum Humidity 65    
Precipitation  
Precipitation 0.04 in - - ()
Sea Level Pressure  
Sea Level Pressure 29.89 in    
Wind  
Wind Speed 10 mph (WNW)    
Max Wind Speed 18 mph    
Max Gust Speed 30 mph    
Visibility 8 miles    
Events Rain , Snow    
Averages and records for this station are not official NWS values.
T = Trace of Precipitation, MM = Missing Value Source: NWS Daily Summary

Daily Weather History Graph

Daily Weather History Graph

Search for Another Location

Airport or City:

Astronomy

Nov. 12, 2019 Rise Set
Actual Time 6:44 AM EST 4:41 PM EST
Civil Twilight 6:14 AM EST 5:11 PM EST
Nautical Twilight 5:41 AM EST 5:44 PM EST
Astronomical Twilight 5:08 AM EST 6:17 PM EST
Moon 5:07 PM EST (11/12) 6:32 AM EST (11/12)
Length of Visible Light 10h 56m
Length of Day
9h 57m
Full, 100% of the Moon is Illuminated
Nov 12
Full
Nov 19
Last Quarter
Nov 26
New
Dec 4
First Quarter
Dec 12
Full

Hourly Weather History & Observations

Time (EST) Temp. Windchill Dew Point Humidity Pressure Visibility Wind Dir Wind Speed Gust Speed Precip Events Conditions
12:56 AM 35.1 °F 31.0 °F 32.0 °F 89% 29.76 in 10.0 mi East 4.6 mph - N/A   Clear
1:56 AM 35.1 °F 31.0 °F 32.0 °F 89% 29.74 in 10.0 mi East 4.6 mph - N/A   Clear
2:56 AM 37.0 °F - 33.1 °F 86% 29.73 in 10.0 mi Calm Calm - 0.00 in Rain Light Rain
3:56 AM 37.0 °F 34.5 °F 35.1 °F 93% 29.72 in 10.0 mi West 3.5 mph - 0.00 in   Overcast
4:46 AM 37.4 °F 30.3 °F 35.6 °F 93% 29.70 in 6.0 mi West 10.4 mph - 0.00 in Rain Light Rain
4:56 AM 36.0 °F 28.5 °F 35.1 °F 97% 29.74 in 8.0 mi West 10.4 mph - 0.00 in Rain Light Rain
5:28 AM 33.8 °F 24.3 °F 30.2 °F 87% 29.73 in 10.0 mi West 13.8 mph - 0.02 in Rain Light Rain
5:37 AM 33.8 °F 24.8 °F 30.2 °F 87% 29.73 in 10.0 mi West 12.7 mph 19.6 mph 0.02 in Rain Light Rain
5:56 AM 32.0 °F 23.0 °F 30.9 °F 96% 29.77 in 9.0 mi West 11.5 mph 19.6 mph 0.03 in   Overcast
6:23 AM 30.2 °F 20.2 °F 28.4 °F 93% 29.75 in 3.0 mi WNW 12.7 mph 26.5 mph 0.00 in Snow Light Snow
6:34 AM 30.2 °F 19.8 °F 28.4 °F 93% 29.76 in 2.0 mi WNW 13.8 mph 21.9 mph 0.01 in Snow Light Snow
6:42 AM 30.2 °F 18.9 °F 28.4 °F 93% 29.76 in 1.8 mi WNW 16.1 mph 21.9 mph 0.01 in Snow Light Snow
6:56 AM 30.0 °F 19.1 °F 28.0 °F 92% 29.80 in 1.2 mi WNW 15.0 mph 24.2 mph 0.01 in Snow Light Snow
7:03 AM 30.2 °F 19.8 °F 28.4 °F 93% 29.77 in 1.8 mi West 13.8 mph 24.2 mph 0.00 in Snow Light Snow
7:08 AM 30.2 °F 21.3 °F 28.4 °F 93% 29.77 in 3.0 mi WNW 10.4 mph 19.6 mph 0.00 in Snow Light Snow
7:21 AM 30.2 °F 20.2 °F 26.6 °F 86% 29.78 in 4.0 mi WNW 12.7 mph - 0.00 in Snow Light Snow
7:48 AM 28.4 °F 18.5 °F 26.6 °F 93% 29.80 in 5.0 mi West 11.5 mph - 0.00 in Snow Light Snow
7:56 AM 28.9 °F 19.2 °F 27.0 °F 92% 29.84 in 9.0 mi West 11.5 mph - 0.00 in Snow Light Snow
8:11 AM 28.4 °F 19.1 °F 26.6 °F 93% 29.81 in 9.0 mi West 10.4 mph 17.3 mph 0.00 in Snow Light Snow
8:27 AM 28.4 °F 19.7 °F 26.6 °F 93% 29.81 in 9.0 mi WNW 9.2 mph - 0.00 in Snow Light Snow
8:39 AM 28.4 °F 18.5 °F 26.6 °F 93% 29.82 in 9.0 mi West 11.5 mph 17.3 mph 0.00 in Snow Light Snow
8:46 AM 28.4 °F 18.0 °F 24.8 °F 86% 29.83 in 10.0 mi WNW 12.7 mph 19.6 mph 0.00 in Snow Light Snow
8:56 AM 28.0 °F 18.1 °F 25.0 °F 88% 29.87 in 9.0 mi West 11.5 mph - 0.00 in Snow Light Snow
9:30 AM 26.6 °F 13.4 °F 23.0 °F 86% 29.83 in 9.0 mi NW 18.4 mph 24.2 mph 0.00 in   Overcast
9:56 AM 27.0 °F 16.1 °F 21.9 °F 81% 29.90 in 10.0 mi WNW 12.7 mph 17.3 mph 0.00 in   Overcast
10:56 AM 25.0 °F 13.1 °F 19.0 °F 78% 29.93 in 10.0 mi NW 13.8 mph 29.9 mph N/A   Overcast
11:56 AM 23.0 °F 9.2 °F 17.1 °F 78% 29.95 in 9.0 mi NW 17.3 mph 26.5 mph 0.00 in Snow Light Snow
12:56 PM 25.0 °F 12.2 °F 17.1 °F 72% 29.96 in 9.0 mi NW 16.1 mph 21.9 mph 0.00 in Snow Light Snow
1:56 PM 26.1 °F 14.0 °F 18.0 °F 71% 29.97 in 9.0 mi NW 15.0 mph 26.5 mph 0.00 in Snow Light Snow
2:37 PM 24.8 °F 14.0 °F 15.8 °F 69% 29.92 in 10.0 mi NW 11.5 mph 26.5 mph 0.00 in   Mostly Cloudy
2:56 PM 25.0 °F 11.3 °F 16.0 °F 69% 29.98 in 10.0 mi NW 18.4 mph 26.5 mph 0.00 in   Mostly Cloudy
3:22 PM 26.6 °F 13.8 °F 17.6 °F 69% 29.94 in 10.0 mi NW 17.3 mph 27.6 mph 0.00 in Snow Light Snow
3:50 PM 24.8 °F 12.4 °F 17.6 °F 74% 29.95 in 2.5 mi NW 15.0 mph 26.5 mph 0.00 in Snow Light Snow
3:56 PM 24.1 °F 12.0 °F 18.0 °F 77% 30.00 in 1.5 mi NW 13.8 mph 23.0 mph 0.00 in Snow Light Snow
4:03 PM 24.8 °F 12.4 °F 17.6 °F 74% 29.95 in 3.0 mi NW 15.0 mph 21.9 mph 0.00 in Snow Light Snow
4:17 PM 23.0 °F 11.7 °F 17.6 °F 80% 29.96 in 9.0 mi WNW 11.5 mph 28.8 mph 0.00 in Snow Light Snow
4:33 PM 23.0 °F 13.1 °F 17.6 °F 80% 29.97 in 2.5 mi NW 9.2 mph 19.6 mph 0.00 in Snow Light Snow
4:46 PM 21.2 °F 7.8 °F 15.8 °F 80% 29.97 in 7.0 mi NW 15.0 mph 20.7 mph 0.00 in Snow Light Snow
4:54 PM 21.2 °F 8.3 °F 14.0 °F 74% 29.98 in 9.0 mi NW 13.8 mph 23.0 mph 0.00 in Snow Light Snow
4:56 PM 21.9 °F 8.7 °F 14.0 °F 72% 30.03 in 9.0 mi NW 15.0 mph 23.0 mph 0.00 in Snow Light Snow
5:56 PM 19.0 °F 5.6 °F 9.0 °F 65% 30.07 in 10.0 mi NW 13.8 mph 24.2 mph 0.00 in   Clear
6:56 PM 18.0 °F 3.6 °F 8.1 °F 65% 30.10 in 10.0 mi NW 15.0 mph 20.7 mph N/A   Clear
7:56 PM 17.1 °F 3.0 °F 7.0 °F 65% 30.12 in 10.0 mi NW 13.8 mph 23.0 mph N/A   Clear
8:56 PM 16.0 °F 2.9 °F 7.0 °F 68% 30.14 in 10.0 mi NW 11.5 mph - N/A   Clear
9:56 PM 16.0 °F 3.6 °F 7.0 °F 68% 30.14 in 10.0 mi West 10.4 mph 21.9 mph N/A   Partly Cloudy
10:56 PM 15.1 °F 1.8 °F 7.0 °F 70% 30.15 in 10.0 mi West 11.5 mph 19.6 mph N/A   Scattered Clouds
11:56 PM 15.1 °F 0.5 °F 7.0 °F 70% 30.16 in 10.0 mi WNW 13.8 mph 24.2 mph N/A   Scattered Clouds